Satellite: NCUBE2
Catalog number: 28897
Epoch time:      08017.26373056
Element set:     454
Inclination:      098.1136 deg
RA of node:       274.6237 deg
Eccentricity:    0.0017385
Arg of perigee:   162.7689 deg
Mean anomaly:     197.4084 deg
Mean motion:   14.59793487 rev/day
Decay rate:       1.29e-06 rev/day^2
Epoch rev:           11060
Checksum:              338

Satellite: FCAL
Catalog number: 29667
Epoch time:      08017.53173000
Element set:     676
Inclination:      051.6323 deg
RA of node:       042.6567 deg
Eccentricity:    0.0010273
Arg of perigee:   100.6956 deg
Mean anomaly:     259.5214 deg
Mean motion:   15.99197591 rev/day
Decay rate:     3.8967e-04 rev/day^2
Epoch rev:            6216
Checksum:              313

Satellite: FALCON
Catalog number: 30776
Epoch time:      08017.38183232
Element set:     227
Inclination:      035.4347 deg
RA of node:       354.0660 deg
Eccentricity:    0.0000460
Arg of perigee:   180.8220 deg
Mean anomaly:     179.2495 deg
Mean motion:   15.02855322 rev/day
Decay rate:       4.53e-06 rev/day^2
Epoch rev:            4729
Checksum:              274

Satellite: MAST
Catalog number: 31126
Epoch time:      08016.68225489
Element set:     232
Inclination:      098.0607 deg
RA of node:       087.0763 deg
Eccentricity:    0.0095780
Arg of perigee:   084.6680 deg
Mean anomaly:     276.5436 deg
Mean motion:   14.53393131 rev/day
Decay rate:        6.5e-07 rev/day^2
Epoch rev:            3986
Checksum:              314

Satellite: CAPE1
Catalog number: 31130
Epoch time:      08017.71980727
Element set:     213
Inclination:      098.0617 deg
RA of node:       087.4337 deg
Eccentricity:    0.0104186
Arg of perigee:   083.4934 deg
Mean anomaly:     277.8110 deg
Mean motion:   14.51922048 rev/day
Decay rate:      -1.29e-06 rev/day^2
Epoch rev:            3974
Checksum:              293

/EX





More information about the Keps mailing list